COSMOS 1525

Satellite information

Favourite Embed

Satellite Type and Status

PAYLOADIN ORBIT

Key statistics

Satellite COSMOS 1525 at a glance.

Uptime

15223

Days in orbit

Revolutions

≈ 12.5

Per day

Orbit

LEO

Low Earth Orbit

Inclination

74.0

Latest

Satellite identification and parameters

Extended collection of information and parameters for COSMOS 1525.

Object identification

Identified? True

Debris? False

Object name: COSMOS 1525

International designator: 1984-001D

Object number (NORAD): 14614

Object ID (CCSDS): 14614

Country: COMMONWEALTH OF INDEPENDENT STATES (CIS)

Current information (Y/N): Y

RCS size: MEDIUM

Orbital parameters

Period: 114.75 minutes

Inclination: 74.0083 deg

SMA: 7822.18 km

Apoapsis: 1460.678 km

Periapsis: 1427.413 km

RAAN: 139.48 deg

Eccentricy: 0.00212631

Argument of periapsis: 87.1894 deg

Mean anomaly: 85.5728 deg

Mean motion: 12.54905494 rev/day

Mean motion (dot): 0.00000019 rev/day2

B* drag term: 0.00021440958 1/REarth

Two-line elements (TLE)

Creation date: Sept. 8, 2025, 6:18 p.m.

Reference frame: TEME

Reference center: EARTH

Epoch: Sept. 8, 2025, 9:57 a.m. UTC

TLE line 0: 0 COSMOS 1525

TLE line 1: 1 14614U 84001D 25251.41513427 .00000019 00000-0 21441-3 0 9996

TLE line 2: 2 14614 74.0083 139.4800 0021263 87.1894 85.5728 12.54905494909091

Live tracking on map

Real-time ground track for satellite COSMOS 1525.

In-orbit conjunctions

There are no conjunctions computed for COSMOS 1525, at the moment. Check back to stay up to date, as we update our databases every day.

Go to all conjunctions

Associated space launch

Military communications satellites

COSMOS 1525 was lifted into orbit during the mission ‘Kosmos-3M | Strela-1M 273-280’, on board a Kosmos-3M space rocket.

The launch took place on Jan. 5, 1984, 8:09 p.m. from 132/2.

For more information about the launch, click the button.

Launch to space Kosmos-3M | Strela-1M 273-280
Kosmos-3M | Strela-1M 273-280

Agency: N/A

Status: Launch Successful

Launch date: Jan. 5, 1984, 8:09 p.m. UTC

Rocket: Kosmos-3M

Launch pad: 132/2

Location: Plesetsk Cosmodrome, Russian Federation

...

Latest news about this satellite

There are no fresh news available about this satellite. Check back as we update our databases every day.


Newsletter sign-up

Weekly statistics, charts and insights to help you stay on top of the space industry.